Lapse_Rate
6.5 6.3 7.1 7.2 6.8 6.9 6.6 6.7 6.5 7.4 7.0 6.2 6.4 6.3 6.9 6.8 6.8 7.0 7.2 7.2 7.1 7.0 7.0 7.1 6.8 6.8 6.8 6.7 6.9 6.8 6.6 6.2 6.1 6.1 6.0 5.8 5.8 5.8 6.0 6.2 6.2 6.3 6.1 6.1
6.0 6.6 7.3 6.7 6.4 6.3 6.3 6.3 6.4 6.8 6.9 6.3 6.3 6.0 6.2 6.9 7.0 7.1 7.6 7.3 7.2 7.2 6.9 7.1 7.5 7.1 7.0 6.9 7.0 6.9 6.6 6.4 6.1 5.9 5.8 5.7 5.8 5.8 6.0 5.9 6.1 6.1 6.1 6.1
6.1 6.6 6.6 6.3 6.4 6.2 6.4 6.4 6.5 6.4 6.5 6.1 6.1 5.7 6.4 7.0 6.9 7.3 7.7 7.7 7.6 7.5 7.6 7.2 7.4 7.4 7.0 7.0 7.0 6.9 6.8 6.4 5.9 5.8 5.8 6.0 6.1 6.0 6.0 5.9 6.0 5.9 6.0 6.0
5.7 6.3 6.4 6.3 6.1 6.4 6.0 6.6 6.3 6.4 6.3 5.8 6.0 4.7 5.6 6.6 6.9 7.0 7.2 7.3 7.6 7.6 7.5 7.3 7.5 7.4 7.1 7.0 7.0 6.9 6.8 6.7 6.0 5.8 5.9 5.9 5.7 5.6 5.7 5.7 5.9 5.9 5.9 6.0
6.0 6.2 6.4 6.5 7.0 6.4 6.1 6.4 6.5 6.6 6.5 5.9 5.6 5.8 5.7 6.5 6.7 7.2 6.9 6.9 7.7 7.4 7.5 7.5 7.5 7.4 7.1 7.0 6.9 6.7 6.7 6.6 6.1 5.9 6.0 5.7 5.5 5.5 5.8 6.0 6.1 6.0 6.0 6.0
6.6 6.6 6.4 6.8 6.6 6.8 6.3 6.5 6.6 6.5 6.1 4.7 5.7 6.4 5.7 6.6 7.0 7.2 6.9 7.2 7.4 7.3 7.4 7.5 7.6 7.3 7.0 6.9 6.8 6.5 6.5 6.5 6.0 5.9 5.9 5.8 5.5 5.6 6.1 6.1 6.0 6.1 6.1 6.0
7.0 7.0 7.0 6.8 6.6 6.5 6.5 6.1 5.8 5.3 4.4 4.4 7.0 6.8 6.1 6.7 6.8 7.0 7.0 7.4 7.6 7.4 7.4 7.6 7.5 7.3 7.0 7.0 6.8 6.4 6.4 6.4 6.1 5.9 5.7 5.7 5.6 5.8 6.2 6.0 6.0 6.0 6.0 5.9
6.3 6.5 7.1 6.8 7.0 7.0 6.6 6.6 6.1 6.2 5.7 6.2 6.5 5.8 6.5 7.0 7.2 7.6 7.4 7.4 7.5 7.6 7.7 7.8 7.6 7.3 7.0 7.1 6.9 6.5 6.4 6.4 6.2 6.1 6.0 6.0 6.0 6.0 6.3 6.1 6.0 6.0 6.0 5.9
6.8 6.8 6.9 6.5 6.6 6.9 6.3 5.6 6.8 6.5 6.4 6.3 6.5 6.9 7.2 7.7 7.6 7.5 7.5 7.1 7.0 7.3 7.7 8.0 7.6 7.2 7.1 6.9 6.8 6.6 6.6 6.6 6.5 6.4 6.2 6.2 6.1 6.2 6.2 6.1 6.0 6.0 5.9 6.0
6.4 6.3 6.5 6.8 6.8 6.6 6.7 6.5 6.1 6.4 5.9 6.1 6.2 7.3 7.7 7.6 7.1 6.7 6.9 6.8 7.0 7.0 7.3 7.1 6.9 6.8 6.7 6.6 6.8 6.8 6.7 6.4 6.3 6.3 6.2 6.3 6.3 6.2 6.2 6.2 6.1 6.0 6.0 6.0
6.5 6.2 5.7 6.5 6.3 6.5 6.8 6.8 6.8 7.1 7.0 6.3 6.5 6.7 6.1 7.1 6.2 6.6 7.1 7.1 6.4 6.8 7.0 6.8 6.5 6.4 6.5 6.5 6.7 6.7 6.5 6.5 6.6 6.6 6.5 6.5 6.3 6.1 6.0 6.0 5.8 5.8 5.9 5.9
6.2 5.8 5.8 6.0 6.4 6.9 7.2 6.9 7.0 7.1 6.5 7.4 7.5 7.0 5.8 6.7 6.0 6.7 6.7 6.7 6.7 6.8 6.8 6.7 6.8 6.8 7.0 6.8 6.7 6.8 6.9 6.8 6.8 6.8 6.5 6.5 6.5 6.3 6.0 5.7 5.5 5.6 5.7 5.6
5.6 6.0 6.2 5.6 6.5 7.0 7.3 7.0 7.1 6.8 6.9 6.5 7.0 6.2 6.5 6.6 6.3 6.1 6.4 6.3 6.0 6.3 6.5 6.6 6.4 6.4 6.6 6.6 6.5 6.5 6.3 6.4 6.5 6.4 6.2 6.0 5.8 5.6 5.5 5.3 5.3 5.4 5.5 5.5
5.5 5.8 6.1 6.1 5.3 4.9 5.6 5.4 5.9 5.9 5.9 5.7 6.3 6.1 6.7 7.0 6.9 6.4 5.5 5.3 5.3 5.4 5.8 5.8 5.8 5.9 6.1 6.5 6.4 6.1 6.1 6.2 6.2 6.3 6.1 6.0 5.7 5.4 5.3 5.4 5.4 5.3 5.1 5.1
5.1 4.8 5.1 5.5 5.5 5.2 5.2 5.0 5.2 4.6 4.2 4.3 3.4 3.8 3.4 4.2 4.4 4.5 4.3 4.0 4.1 4.4 4.7 5.2 5.5 5.6 5.5 5.7 5.6 5.7 5.8 5.9 5.7 5.7 5.8 5.6 5.2 5.1 5.1 5.1 5.1 4.9 4.8 4.7
5.3 4.8 4.6 4.8 5.5 5.5 4.4 4.4 4.7 4.6 3.9 3.0 2.5 2.5 2.4 2.8 3.3 3.6 3.7 3.4 3.2 3.3 3.6 3.9 3.9 4.0 4.0 4.0 4.1 4.2 4.4 4.4 4.7 4.5 4.6 4.6 4.5 4.4 4.5 4.1 4.2 4.1 4.1 4.1
5.1 5.0 4.8 4.3 4.8 5.4 4.9 3.4 3.1 2.7 2.3 2.2 2.4 1.7 2.4 3.1 3.6 3.4 3.6 3.3 3.3 3.1 3.2 3.2 3.2 3.2 3.4 3.2 3.3 3.3 3.2 3.3 3.6 3.4 3.4 3.7 3.6 3.6 3.8 3.7 3.7 3.7 4.0 4.1
5.7 5.5 5.4 5.0 5.7 5.0 2.2 2.8 2.9 2.7 2.4 2.2 2.2 2.3 2.3 2.4 2.9 2.9 2.8 2.8 2.8 2.5 3.0 3.0 2.8 3.0 2.8 2.8 2.8 3.0 3.5 3.2 3.2 3.5 3.4 3.4 3.6 3.6 3.8 3.8 3.6 3.7 3.8 3.8
6.2 6.1 5.9 6.2 5.1 3.7 3.2 3.7 3.9 3.7 3.4 3.4 3.4 3.2 3.0 2.8 3.0 3.3 3.1 3.3 3.5 3.3 2.9 2.8 2.7 2.8 2.7 3.1 3.4 3.1 2.9 3.0 2.9 2.8 2.7 2.8 2.8 3.0 2.9 3.1 3.2 3.3 3.5 3.7
6.7 6.6 6.5 6.6 6.4 5.6 3.6 4.3 4.6 4.0 3.5 3.9 3.7 3.5 3.6 3.5 3.6 3.6 3.9 4.1 4.1 3.9 3.6 3.6 3.5 3.5 3.7 3.7 3.7 3.6 3.6 3.6 3.8 3.5 3.3 3.2 3.1 3.2 3.4 3.4 3.5 3.6 3.6 3.8
6.9 6.8 6.6 6.6 6.4 4.8 4.5 4.3 4.1 4.2 3.9 3.8 3.7 3.5 3.5 3.4 3.2 3.4 3.6 3.7 3.9 4.0 4.1 4.0 3.9 3.8 3.6 3.6 3.5 3.5 3.7 3.6 3.7 3.7 3.6 3.8 3.7 4.0 4.0 4.2 4.4 4.4 4.6 4.6
6.2 6.2 6.2 6.1 6.2 5.2 4.9 4.7 4.6 4.1 3.9 4.0 4.1 4.1 4.3 4.0 4.2 4.2 4.3 4.5 4.6 4.7 4.7 4.8 4.9 4.9 4.9 4.9 4.9 4.6 4.3 4.3 4.1 4.0 3.9 4.0 4.1 4.1 4.0 4.1 3.9 3.9 4.1 3.8
5.8 5.9 5.6 5.5 5.1 5.1 5.1 5.1 4.8 4.6 4.5 4.6 4.7 4.6 4.9 5.1 4.9 4.9 5.0 4.9 4.9 5.0 5.0 5.1 5.1 5.1 4.9 5.0 5.2 5.2 5.0 4.9 4.8 4.8 4.9 4.8 4.5 4.5 4.4 4.2 4.1 4.1 4.4 4.7
6.1 5.8 5.5 5.4 4.9 4.9 4.8 4.7 4.5 4.4 4.5 4.6 4.8 4.9 4.9 5.2 5.0 5.1 5.1 5.1 5.1 5.2 5.2 5.2 5.2 5.3 5.4 5.4 5.3 5.2 5.2 5.2 5.2 5.1 4.9 4.8 4.9 4.9 4.9 4.9 4.9 4.9 4.9 4.9
5.8 5.5 5.3 5.0 4.7 4.7 4.6 4.8 4.9 4.8 4.9 5.1 5.1 5.0 5.2 5.4 5.5 5.4 5.5 5.4 5.4 5.4 5.3 5.2 5.2 5.3 5.3 5.2 5.1 4.9 4.8 4.8 4.9 4.8 4.9 4.9 4.8 4.7 4.8 4.8 4.8 4.7 4.7 4.8
5.4 5.3 5.3 5.1 5.1 5.1 5.0 5.1 5.4 5.6 5.6 5.7 5.9 5.9 5.7 5.6 5.6 5.7 5.7 5.6 5.5 5.5 5.5 5.5 5.4 5.3 5.1 4.9 4.7 4.6 4.5 4.4 4.4 4.4 4.4 4.5 4.6 4.6 4.6 4.6 4.5 4.3 4.3 4.5
Wind_Speed
5 4 11 12 13 15 11 11 10 12 5 7 11 12 15 10 11 13 12 11 11 11 11 11 11 11 10 9 13 14 12 10 7 5 5 4 4 3 3 6 9 9 8 7
3 11 14 12 11 7 8 10 11 10 4 5 8 12 14 14 14 15 13 10 11 8 9 12 11 13 12 11 13 14 13 11 7 5 4 3 4 3 3 5 5 8 7 6
12 6 3 8 11 8 10 10 11 11 4 6 5 7 10 13 12 16 12 3 4 9 9 13 13 12 10 11 12 13 13 12 9 8 5 4 4 4 3 3 3 3 8 5
12 15 19 11 8 8 11 6 6 9 4 4 4 8 8 11 16 7 9 8 7 6 5 8 11 12 12 10 9 11 12 12 9 9 7 8 6 5 4 4 4 4 9 6
6 5 4 6 14 8 8 2 2 3 4 6 5 5 6 5 7 10 9 8 8 8 7 6 8 9 8 8 8 8 10 11 10 8 8 7 6 4 4 4 7 5 5 8
12 2 3 5 2 1 5 2 2 1 1 5 10 10 4 7 9 3 8 9 9 7 3 6 7 8 8 8 8 8 9 10 8 8 8 8 8 8 8 5 6 4 4 4
8 20 6 4 3 2 3 3 3 2 1 8 7 9 13 3 2 6 8 8 9 7 2 4 8 7 8 9 8 7 8 8 8 8 8 8 8 8 9 7 5 6 4 4
4 6 14 8 10 7 7 8 5 6 5 4 5 6 6 8 7 9 8 10 9 7 5 6 4 6 7 8 8 8 8 7 8 8 8 7 7 5 5 6 5 5 5 5
5 7 5 5 3 6 4 6 7 6 10 4 5 10 10 4 3 4 6 7 7 7 6 6 7 6 5 6 7 7 6 7 7 7 6 6 5 6 6 7 6 5 5 5
3 12 4 4 4 3 1 3 2 3 4 6 6 5 4 15 21 15 12 3 6 8 8 7 7 8 7 5 4 4 5 5 5 6 6 6 5 5 6 7 7 7 6 7
5 4 5 6 6 7 3 3 5 3 6 7 8 3 11 18 20 20 21 22 9 9 9 8 9 9 8 9 9 6 5 6 4 4 3 4 4 4 5 5 6 6 7 8
9 5 7 12 9 10 12 13 15 11 13 5 13 7 12 18 20 22 23 24 14 18 16 13 15 16 16 15 15 14 14 13 10 8 6 6 5 4 4 4 5 6 6 6
12 5 8 11 8 16 13 4 13 14 8 16 12 8 16 21 23 24 24 25 20 18 17 16 16 14 14 14 14 13 12 10 9 9 9 8 8 8 7 7 8 8 8 7
6 4 6 5 4 7 4 12 12 7 4 8 6 9 26 25 23 20 21 19 18 18 17 15 14 12 12 12 12 12 12 10 7 7 7 7 6 5 5 6 6 5 5 4
5 5 8 16 16 15 10 11 12 6 6 4 8 9 15 16 14 15 16 17 19 18 17 15 13 12 12 11 10 10 9 10 9 9 9 8 7 6 5 4 4 4 4 4
5 5 14 16 15 14 14 15 7 12 9 6 8 4 15 14 10 14 14 15 16 15 15 14 13 13 13 13 12 11 10 10 8 8 8 8 8 8 8 8 7 6 5 4
14 4 3 7 10 12 3 13 10 12 14 6 8 7 14 14 11 11 12 12 12 12 12 13 11 10 10 10 10 10 10 9 9 9 9 9 8 7 7 7 6 7 6 6
4 3 3 5 9 4 3 9 11 14 9 10 8 10 12 15 2 7 8 9 10 10 11 10 10 8 7 7 9 9 8 8 7 6 6 7 8 7 6 6 5 4 3 3
4 2 3 1 4 5 4 5 4 3 5 9 8 11 12 16 8 5 12 7 6 7 7 7 7 8 8 6 7 8 7 7 6 5 5 5 5 6 6 5 4 3 3 3
9 9 1 4 1 2 2 10 11 6 3 9 8 9 9 13 6 4 14 13 10 7 6 9 7 8 7 8 5 6 6 7 7 5 5 6 5 4 4 4 4 4 4 5
4 5 3 5 3 2 6 12 6 4 5 8 5 6 6 6 4 13 11 11 9 9 9 9 7 6 6 6 6 7 8 8 5 6 7 7 6 6 5 3 4 4 4 5
3 3 3 4 3 2 8 5 6 5 5 4 5 6 9 9 13 10 12 11 11 10 10 8 8 8 8 8 6 7 8 9 7 6 8 7 6 6 6 6 5 6 4 4
2 2 2 2 1 3 1 5 1 2 4 4 4 7 5 9 12 12 11 10 10 11 10 9 8 9 8 7 7 8 8 7 8 8 8 8 8 8 8 7 7 6 4 4
2 4 2 3 3 5 5 4 3 4 5 6 5 7 6 9 10 12 11 11 10 10 10 9 10 10 9 8 10 9 10 9 8 9 9 8 8 8 7 6 6 6 5 4
1 4 4 3 3 8 2 1 2 7 7 4 7 7 10 11 13 12 11 11 10 11 10 10 8 10 11 9 9 9 12 9 9 9 8 8 7 8 7 7 6 6 5 5
3 1 1 3 2 4 8 6 12 10 4 10 12 13 9 11 12 11 10 10 9 10 9 10 11 11 11 11 11 10 9 8 7 8 8 7 7 5 6 5 5 13 19 19
Wind_Direction
198 199 218 211 215 240 272 288 283 285 177 167 228 247 263 251 246 245 232 220 219 211 201 180 171 157 154 156 159 162 161 170 156 146 145 147 160 139 117 103 132 124 132 124
177 237 244 253 263 264 274 266 260 283 260 179 269 263 270 270 253 244 241 230 220 207 183 169 162 158 165 162 163 164 167 168 159 151 155 140 145 145 130 122 123 131 132 133
223 221 67 238 249 233 251 246 263 259 271 210 274 272 255 259 249 243 244 184 183 182 176 160 164 162 155 167 167 166 168 168 162 155 153 135 102 86 103 141 139 152 141 133
250 249 248 241 240 227 248 239 264 258 250 241 116 288 252 277 276 218 208 183 159 121 113 146 162 163 167 168 155 164 168 167 164 164 156 156 160 158 175 154 156 160 146 140
237 211 223 237 237 229 264 93 310 308 272 318 240 268 265 208 284 277 194 178 160 147 163 177 158 160 160 154 158 161 165 167 169 167 157 154 157 175 149 149 146 151 146 145
255 152 240 228 78 48 120 131 197 217 193 261 221 205 257 223 235 275 107 108 98 80 74 147 142 143 148 151 156 161 164 170 165 162 161 166 182 172 152 146 153 156 150 150
234 238 196 184 211 101 182 154 294 276 174 236 205 207 242 302 140 132 136 128 118 116 153 142 146 154 153 156 157 160 160 168 161 164 177 180 194 157 155 156 157 157 156 155
253 305 181 174 213 180 179 180 178 230 210 274 65 232 250 241 86 94 78 133 122 114 60 41 119 154 154 148 151 162 165 165 163 169 185 184 176 150 152 155 153 161 161 157
261 241 33 157 145 158 180 195 241 297 286 278 239 273 300 70 101 100 116 110 126 123 102 54 8 16 121 130 146 162 169 168 174 172 173 175 168 148 151 157 155 158 145 147
260 293 233 103 73 291 188 314 94 224 253 222 262 257 267 30 9 20 13 303 147 111 81 50 15 14 25 85 133 150 169 174 166 168 169 173 196 170 163 155 158 159 147 141
352 254 253 120 197 170 169 236 218 254 221 236 263 254 2 29 22 9 354 349 16 78 64 42 15 10 21 30 31 40 57 93 90 86 85 116 126 127 122 135 147 143 133 145
338 287 273 244 256 208 216 224 216 229 241 233 238 234 40 38 25 15 4 344 349 58 52 39 27 22 23 26 25 25 27 35 26 27 54 65 69 83 101 104 105 117 133 138
348 303 275 292 240 246 257 332 356 336 288 254 259 241 37 36 29 15 16 11 26 40 44 41 34 28 21 17 22 18 18 22 27 36 46 42 43 48 48 54 59 65 75 69
346 297 306 297 6 338 308 1 359 338 267 302 265 314 6 9 17 16 13 16 23 32 33 34 34 32 29 25 21 18 15 12 19 36 50 45 29 47 52 55 63 76 88 107
169 267 311 301 296 300 22 17 41 58 356 44 14 64 3 356 14 16 15 18 21 20 24 23 23 20 19 20 18 15 16 20 25 40 46 44 38 41 57 78 101 116 133 139
321 285 323 290 281 263 90 35 50 52 16 22 68 73 358 349 23 20 20 22 20 13 13 20 20 20 16 13 11 9 8 10 17 29 38 38 44 34 36 32 34 46 58 68
278 257 341 269 302 321 85 20 76 80 37 7 41 349 338 343 17 25 16 16 18 8 5 9 11 10 10 4 5 8 5 10 25 26 21 23 27 40 40 28 25 34 30 28
267 321 198 271 285 213 86 72 72 92 54 33 15 353 346 331 233 63 37 16 6 359 357 358 354 353 5 3 2 352 360 1 9 27 29 17 12 9 12 16 21 17 5 351
157 212 290 265 58 118 187 37 3 1 66 24 5 350 348 336 293 60 24 8 354 348 344 334 343 334 340 357 352 343 345 351 349 1 1 3 0 349 341 338 319 309 305 305
24 7 158 4 333 182 85 318 311 200 214 3 1 345 348 334 356 321 349 342 342 340 332 328 330 324 335 334 329 332 331 328 328 329 337 299 291 282 273 317 324 312 298 282
353 352 39 342 62 73 336 318 329 65 277 331 348 333 339 329 288 306 320 321 322 314 313 311 318 310 305 321 315 315 316 313 315 317 306 307 311 307 292 280 282 278 278 284
59 335 26 328 20 323 343 10 91 241 300 314 339 321 323 305 306 308 314 314 318 318 320 322 319 315 318 315 308 301 302 314 324 316 300 298 301 293 294 297 291 282 271 258
39 2 327 55 236 212 239 129 296 249 265 296 298 295 277 291 301 304 308 310 313 318 317 318 314 309 309 307 307 306 309 309 303 300 297 299 297 293 289 286 281 277 262 247
70 6 40 37 355 286 215 158 52 353 309 276 261 288 281 293 295 307 310 312 313 313 314 313 313 302 311 315 317 316 313 313 305 298 298 296 292 285 272 269 272 268 254 252
298 338 323 276 15 347 275 27 281 320 293 302 289 285 299 306 309 303 306 309 310 309 308 303 310 313 308 319 320 318 312 311 302 297 292 290 290 286 282 270 267 267 262 240
349 217 27 259 245 217 271 293 313 309 307 312 308 309 310 305 300 302 301 296 300 298 313 317 309 317 318 315 310 306 304 302 297 295 292 288 293 301 295 292 285 280 283 280